CST,Max TemperatureF,Mean TemperatureF,Min TemperatureF,Max Dew PointF,MeanDew PointF,Min DewpointF,Max Humidity, Mean Humidity, Min Humidity, Max Sea Level PressureIn, Mean Sea Level PressureIn, Min Sea Level PressureIn, Max VisibilityMiles, Mean VisibilityMiles, Min VisibilityMiles, Max Wind SpeedMPH, Mean Wind SpeedMPH, Max Gust SpeedMPH,PrecipitationIn, CloudCover, Events, WindDirDegrees
2013-11-1,77,59,41,52,44,41,100,82,32,30.11,29.88,29.83,10,9,2,17,2,24,0.00,0,,340
2013-11-2,67,52,39,44,40,32,99,76,28,30.32,30.19,30.11,10,10,7,14,4,22,0.00,0,,334
2013-11-3,66,48,34,46,38,34,100,92,42,30.22,30.17,30.02,10,8,2,16,1,23,0.00,0,,144
2013-11-4,62,58,54,59,52,46,100,82,66,30.09,30.02,29.97,10,9,4,17,10,21,0.24,4,Rain,143
2013-11-5,68,63,58,67,62,59,100,98,94,30.07,30.00,29.94,10,7,3,13,8,18,0.29,-1045,Rain,141
2013-11-6,68,52,35,68,47,35,100,88,48,30.39,30.16,29.94,10,9,1,21,12,34,0.66,5,Rain,348
2013-11-7,64,48,32,43,37,32,100,87,37,30.50,30.41,30.37,10,9,1,9,1,,0.00,0,,250
2013-11-8,66,50,33,46,39,34,100,77,35,30.37,30.26,30.12,10,9,2,17,3,24,0.00,0,,173
2013-11-9,68,59,50,54,48,44,85,73,56,30.25,30.14,30.10,10,10,10,13,4,,0.00,4,,136
2013-11-10,64,54,45,50,49,45,100,80,56,30.37,30.28,30.25,10,9,0,5,3,,0.00,7,Fog,113
2013-11-11,73,58,43,58,51,43,100,87,53,30.34,30.25,30.17,10,9,1,25,2,32,0.00,-281,,332
2013-11-12,55,42,28,52,32,18,89,69,34,30.71,30.58,30.35,10,10,10,23,17,34,0.00,4,,2
2013-11-13,53,38,23,29,24,20,100,72,35,30.71,30.58,30.35,10,10,10,9,3,,0.00,0,,162
2013-11-14,53,40,26,40,31,26,99,75,41,30.37,30.20,29.99,10,10,10,66,4,20,0.00,2,,138
2013-11-15,68,56,44,56,49,41,100,80,52,30.03,29.92,29.81,10,9,4,10,6,16,0.00,3,,142
2013-11-16,75,65,55,67,60,54,100,88,61,29.82,29.75,29.62,10,10,7,20,8,31,0.00,-644,,154
2013-11-17,80,70,60,67,56,27,94,68,24,30.06,29.76,29.64,10,10,10,20,14,26,0.00,1,,230
2013-11-18,69,60,50,39,31,24,56,37,26,30.24,30.15,30.06,10,10,10,14,8,20,0.00,0,,42
2013-11-19,64,58,53,41,36,30,61,48,30,30.20,30.12,30.02,10,10,10,18,6,23,0.00,3,,122
2013-11-20,62,55,48,54,41,34,72,58,47,30.02,29.97,29.87,10,10,10,14,8,17,0.00,6,,140
2013-11-21,68,52,35,66,54,35,100,90,74,30.30,30.04,29.94,10,8,3,29,10,34,0.00,8,Rain-Thunderstorm,156
2013-11-22,50,41,32,35,32,30,100,93,47,30.50,30.42,30.32,10,8,2,21,14,32,0.04,8,Rain,360
2013-11-23,39,36,32,34,31,27,96,88,70,30.59,30.54,30.49,10,9,5,14,7,24,0.00,7,Rain,12
2013-11-24,33,32,30,28,23,17,89,71,54,30.63,30.55,30.33,10,10,10,12,8,17,0.00,2,,17
2013-11-25,35,32,30,34,32,28,100,96,89,30.35,30.27,30.20,10,7,2,7,3,,0.02,8,Rain-Snow,64
2013-11-26,50,42,34,36,31,24,96,77,43,30.38,30.24,30.18,10,9,7,22,9,30,0.00,4,,346
2013-11-27,44,34,23,23,19,14,100,63,31,30.48,30.39,30.33,10,10,10,18,12,24,0.00,0,,359
2013-11-28,55,38,21,28,24,21,100,78,30,30.44,30.36,30.32,10,10,10,8,1,,0.00,0,,149
2013-11-29,60,42,23,36,30,23,100,79,31,30.49,30.41,30.32,10,10,7,14,2,18,0.00,0,,156
2013-11-30,66,54,41,52,42,36,98,81,56,30.32,30.25,30.13,10,10,10,14,7,21,0.00,0,,175